Regional Weather Roundup
Issued by NWS Newport/Morehead, NC

Current Version | Previous Version | Graphics & Text | Print | Product List | Glossary Off
Versions: 1 2 3 4 5 6 7 8 9 10 11 12 13 14 15 16 17 18 19 20 21 22 23 24 25 26 27 28 29 30 31 32 33 34 35 36 37 38 39 40 41 42 43 44 45 46 47 48 49 50

000
ASUS42 KMHX 290324
RWRMHX
WEATHER ROUNDUP FOR EASTERN NORTH CAROLINA
NATIONAL WEATHER SERVICE NEWPORT/MOREHEAD CITY NC
1100 PM EDT TUE JUL 28 2015

NOTE: "FAIR" INDICATES FEW OR NO CLOUDS BELOW 12,000 FEET
WITH NO SIGNIFICANT WEATHER AND/OR OBSTRUCTIONS TO VISIBILITY

NCZ015>017-031-032-045>047-102-103-290400-
NORTH COAST

CITY           SKY/WX    TMP DP  RH WIND       PRES   REMARKS
EDENTON          N/A     78  70  78 SE3       30.02R
ELIZABETH CITY MOCLDY    76  71  85 SE3       30.02R
KITTY HAWK     PTCLDY    76  69  77 SE5       30.02R
MANTEO         PTCLDY    75  71  86 SE3       30.03S

$$

NCZ045>047-081-094-103-104-290400-
CENTRAL COAST

CITY           SKY/WX    TMP DP  RH WIND       PRES   REMARKS
FRISCO         PTCLDY    76  68  76 E5        30.02R
SWANQUARTER      N/A     75 N/A N/A NE3       29.97S

$$

NCZ095-097-098-100-101-290400-
SOUTHERN COAST

CITY           SKY/WX    TMP DP  RH WIND       PRES   REMARKS
BEAUFORT       PTCLDY    79  71  76 E5        30.00S
CEDAR ISLAND     N/A     81 N/A N/A E12       30.03S
JACKSONVILLE   PTCLDY    80  71  74 E8        29.99S
PINEY ISLAND   PTCLDY   N/A N/A N/A E8        30.00S
WILMINGTON     PTCLDY    76  71  85 N3        29.99R


$$

NCZ011>013-027>030-043-044-078>080-089-090>093-098-290400-
COASTAL PLAIN

CITY           SKY/WX    TMP DP  RH WIND       PRES   REMARKS
AHOSKIE        PTCLDY    74  67  78 CALM      30.01S
CLINTON        PTCLDY    78  71  78 CALM      30.00R
ELIZABETHTOWN  PTCLDY    77  69  77 CALM      29.99F
GOLDSBORO      MOCLDY    79  74  84 SE3       29.98R
GREENVILLE     PTCLDY    79  72  78 SE5       30.03R
HAVELOCK       PTCLDY    77  70  79 CALM      30.01R
KENANSVILLE    MOCLDY    74  69  85 CALM      30.01R
KINSTON        PTCLDY    79  70  74 S3        30.01R
NEW BERN       PTCLDY    75  71  87 CALM      30.01R
RICHLANDS      PTCLDY    73  66  78 CALM      30.00S
ROCKY MOUNT    PTCLDY    78  72  81 E3        29.99S
WASHINGTON     PTCLDY    75  71  87 E3        30.02R
WHITEVILLE     PTCLDY    75  71  86 CALM      29.99R

$$

AMZ130-135-150-152-154-156-158-170-250-252-270-ANZ085-086-088-633-658-670-290400-
MARINE OBSERVATIONS

STATION/POSITION TIME  TEMP    WIND        PRES    WAVE   SWELL
                       AIR SEA DIR/SP/G            HT/PER HT/PER
                 (UTC) (F)     (DEG/KT/KT) (MB)    (FT/S) (FT/S)
CHESAPEAKE LIGHT 0300   80     170/ 13/ 14 1016.7
64 E VA BEACH    0250   80 82  160/  6/  8 1016.4    3/ 6   3/ 6
DUCK             0300   79 71  140/  8/  9 1015.8
2 E DUCK         0211      80                N/A     2/11   2/11
OREGON INLET     0300   79 83  100/  3/  5 1016.7
13E OREGON INLT  0300      80                N/A     2/11
HATTERAS CG      0300   81 84   90/  6/  9 1015.9
DIAMOND BUOY     NOT AVBL
CAPE LOOKOUT     0300   81      90/ 11/ 13 1015.4
BEAUFORT LAB     0300   80 81   80/  3/  6 1015.2
30 SE NEW RVR IN NOT AVBL
27 SE WRIGHTSVLE 0300   78 81  100/ 12/ 14   N/A
5 SE WRIGHTSVLE  0208   81 81   90/  8/ 14 1015.4
225 S CAPE HAT   0250   82 82  220/ 17/ 19 1014.8    7/ 7   2/11
41 SE CHARLESTON 0250   83 84   60/  8/ 10 1014.7    3/ 6   3/ 6

$$


USA.gov is the U.S. government's official web portal to all federal, state and local government web resources and services.